Weather History for KHCO - September, 2014

Change the Weather History Date:

Monday, September 1, 2014

  Actual Average Record
Temperature  
Mean Temperature 60 °F -  
Max Temperature 73 °F 74 °F 92 °F (1983)
Min Temperature 48 °F 49 °F 30 °F (1935)
Degree Days  
Heating Degree Days 4    
Growing Degree Days 10 (Base 50)    
Moisture  
Dew Point 54 °F    
Average Humidity 80    
Maximum Humidity 100    
Minimum Humidity 50    
Precipitation  
Precipitation 0.00 in - - ()
Sea Level Pressure  
Sea Level Pressure 29.68 in    
Wind  
Wind Speed 5 mph (WSW)    
Max Wind Speed 17 mph    
Max Gust Speed 22 mph    
Visibility 9 miles    
Events Fog , Rain , Thunderstorm    
Averages and records for this station are not official NWS values.
T = Trace of Precipitation, MM = Missing Value Source: NWS Daily Summary

Daily Weather History Graph

Daily Weather History Graph

Search for Another Location

Airport or City:

Trip Planner

Search our weather history database for the weather conditions in past years. The results will help you decide how hot, cold, wet, or windy it might be!

Date:

Astronomy

Sep. 01, 2014 Rise Set
Actual Time 6:44 AM CDT 8:09 PM CDT
Civil Twilight 6:12 AM CDT 8:42 PM CDT
Nautical Twilight 5:32 AM CDT 9:21 PM CDT
Astronomical Twilight 4:49 AM CDT 10:04 PM CDT
Moon 2:05 PM CDT (9/1) 11:37 PM CDT (9/1)
Length of Visible Light 14h 30m
Length of Day
13h 24m
Waxing Crescent, 42% of the Moon is Illuminated
Sep 1
Waxing Crescent
Sep 2
First Quarter
Sep 8
Full
Sep 15
Last Quarter
Sep 24
New

Hourly Weather History & Observations

Time (CDT) Temp. Dew Point Humidity Pressure Visibility Wind Dir Wind Speed Gust Speed Precip Events Conditions
12:13 AM 60.8 °F 57.2 °F 88% 29.63 in 10.0 mi WNW 4.6 mph - N/A   Overcast
12:33 AM 59.0 °F 57.2 °F 94% 29.63 in 10.0 mi NW 4.6 mph - N/A   Scattered Clouds
12:53 AM 59.0 °F 57.2 °F 94% 29.64 in 10.0 mi WNW 3.5 mph - N/A   Mostly Cloudy
1:13 AM 57.2 °F 57.2 °F 100% 29.65 in 10.0 mi WNW 6.9 mph - N/A   Mostly Cloudy
1:33 AM 57.2 °F 55.4 °F 94% 29.65 in 10.0 mi WNW 4.6 mph - N/A   Mostly Cloudy
1:53 AM 57.2 °F 57.2 °F 100% 29.65 in 10.0 mi NW 6.9 mph - N/A   Overcast
2:13 AM 57.2 °F 55.4 °F 94% 29.65 in 10.0 mi West 3.5 mph - N/A   Scattered Clouds
2:33 AM 57.2 °F 55.4 °F 94% 29.66 in 10.0 mi WNW 4.6 mph - N/A   Mostly Cloudy
2:53 AM 55.4 °F 53.6 °F 94% 29.66 in 10.0 mi Calm Calm - N/A   Scattered Clouds
3:13 AM 55.4 °F 53.6 °F 94% 29.66 in 7.0 mi Calm Calm - N/A   Scattered Clouds
3:33 AM 53.6 °F 51.8 °F 94% 29.66 in 7.0 mi WNW 3.5 mph - N/A   Scattered Clouds
3:53 AM 55.4 °F 53.6 °F 94% 29.65 in 10.0 mi WNW 4.6 mph - N/A   Mostly Cloudy
4:13 AM 55.4 °F 55.4 °F 100% 29.65 in 10.0 mi NW 6.9 mph - N/A   Overcast
4:33 AM 55.4 °F 55.4 °F 100% 29.65 in 10.0 mi NW 5.8 mph - N/A   Overcast
4:53 AM 55.4 °F 55.4 °F 100% 29.65 in 10.0 mi NW 4.6 mph - N/A   Overcast
5:13 AM 57.2 °F 55.4 °F 94% 29.66 in 10.0 mi NW 3.5 mph - N/A   Mostly Cloudy
5:33 AM 55.4 °F 53.6 °F 94% 29.66 in 10.0 mi Calm Calm - N/A   Scattered Clouds
5:53 AM 53.6 °F 51.8 °F 94% 29.66 in 5.0 mi Calm Calm - N/A   Clear
6:13 AM 53.6 °F 51.8 °F 94% 29.66 in 5.0 mi Calm Calm - N/A   Clear
6:33 AM 51.8 °F 51.8 °F 100% 29.66 in 0.5 mi Calm Calm - N/A Fog Fog
6:53 AM 48.2 °F 48.2 °F 100% 29.67 in 0.2 mi South 4.6 mph - N/A Fog Fog
7:13 AM 48.2 °F 46.4 °F 93% 29.68 in 0.2 mi South 3.5 mph - N/A Fog Fog
7:53 AM 51.8 °F 51.8 °F 100% 29.68 in 0.8 mi Calm Calm - N/A   Mostly Cloudy
8:13 AM 53.6 °F 53.6 °F 100% 29.68 in 10.0 mi South 4.6 mph - N/A   Clear
8:33 AM 55.4 °F 53.6 °F 94% 29.68 in 10.0 mi South 4.6 mph - N/A   Clear
8:53 AM 55.4 °F 55.4 °F 100% 29.68 in 10.0 mi SSW 4.6 mph - N/A   Clear
9:13 AM 57.2 °F 55.4 °F 94% 29.68 in 10.0 mi SSW 4.6 mph - N/A   Clear
9:33 AM 59.0 °F 55.4 °F 88% 29.68 in 10.0 mi SSW 3.5 mph - N/A   Clear
9:53 AM 60.8 °F 55.4 °F 82% 29.68 in 10.0 mi SSW 3.5 mph - N/A   Clear
10:13 AM 62.6 °F 55.4 °F 77% 29.68 in 10.0 mi SW 3.5 mph - N/A   Clear
10:33 AM 64.4 °F 55.4 °F 73% 29.69 in 10.0 mi Calm Calm - N/A   Clear
10:53 AM 64.4 °F 55.4 °F 73% 29.69 in 10.0 mi Calm Calm - N/A   Clear
11:13 AM 66.2 °F 55.4 °F 68% 29.69 in 10.0 mi Calm Calm - N/A   Clear
11:33 AM 68.0 °F 55.4 °F 64% 29.68 in 10.0 mi Calm Calm - N/A   Clear
11:53 AM 69.8 °F 55.4 °F 60% 29.69 in 10.0 mi Calm Calm - N/A   Clear
12:13 PM 69.8 °F 53.6 °F 56% 29.69 in 10.0 mi Calm Calm - N/A   Clear
12:33 PM 71.6 °F 55.4 °F 57% 29.69 in 10.0 mi SW 6.9 mph - N/A   Clear
12:53 PM 71.6 °F 53.6 °F 53% 29.69 in 10.0 mi WSW 8.1 mph - N/A   Clear
1:13 PM 71.6 °F 55.4 °F 57% 29.68 in 10.0 mi WSW 4.6 mph - N/A   Clear
1:33 PM 73.4 °F 53.6 °F 50% 29.68 in 10.0 mi SW 3.5 mph - N/A   Clear
1:53 PM 73.4 °F 55.4 °F 53% 29.68 in 10.0 mi SW 9.2 mph - N/A   Clear
2:13 PM 73.4 °F 53.6 °F 50% 29.67 in 10.0 mi WSW 8.1 mph - N/A Thunderstorm Clear
2:33 PM 73.4 °F 55.4 °F 53% 29.67 in 10.0 mi WSW 10.4 mph 16.1 mph N/A Thunderstorm Thunderstorm
2:53 PM 69.8 °F 55.4 °F 60% 29.68 in 10.0 mi NNW 12.7 mph - N/A Rain , Thunderstorm Light Thunderstorms and Rain
3:13 PM 66.2 °F 53.6 °F 64% 29.69 in 10.0 mi West 6.9 mph - N/A Thunderstorm Unknown
3:33 PM 66.2 °F 48.2 °F 52% 29.70 in 10.0 mi West 4.6 mph - N/A Thunderstorm Thunderstorm
3:53 PM 62.6 °F 53.6 °F 72% 29.71 in 10.0 mi West 17.3 mph 21.9 mph N/A Rain , Thunderstorm Light Thunderstorms and Rain
4:13 PM 62.6 °F 55.4 °F 77% 29.69 in 10.0 mi West 11.5 mph - N/A Rain Light Rain
4:33 PM 66.2 °F 51.8 °F 60% 29.69 in 10.0 mi West 6.9 mph - N/A Rain Light Rain
4:53 PM 68.0 °F 53.6 °F 60% 29.70 in 10.0 mi WSW 9.2 mph - N/A Thunderstorm Clear
5:13 PM 69.8 °F 51.8 °F 53% 29.70 in 10.0 mi West 9.2 mph - N/A   Clear
5:33 PM 66.2 °F 53.6 °F 64% 29.70 in 10.0 mi WSW 6.9 mph - N/A   Clear
5:53 PM 69.8 °F 51.8 °F 53% 29.70 in 10.0 mi WSW 9.2 mph - N/A   Clear
6:13 PM 69.8 °F 53.6 °F 56% 29.70 in 10.0 mi WSW 8.1 mph - N/A   Clear
6:33 PM 69.8 °F 53.6 °F 56% 29.70 in 10.0 mi SW 8.1 mph - N/A   Clear
6:53 PM 68.0 °F 55.4 °F 64% 29.70 in 10.0 mi SW 6.9 mph - N/A   Clear
7:12 PM 66.2 °F 55.4 °F 68% 29.70 in 10.0 mi SW 5.8 mph - N/A   Clear
7:33 PM 64.4 °F 57.2 °F 77% 29.70 in 10.0 mi SW 5.8 mph - N/A   Clear
7:53 PM 62.6 °F 55.4 °F 77% 29.70 in 10.0 mi SW 6.9 mph - N/A   Clear
8:13 PM 60.8 °F 55.4 °F 82% 29.70 in 10.0 mi SSW 3.5 mph - N/A   Clear
8:33 PM 59.0 °F 55.4 °F 88% 29.71 in 10.0 mi SSW 4.6 mph - N/A   Clear
8:53 PM 57.2 °F 55.4 °F 94% 29.71 in 10.0 mi SW 3.5 mph - N/A   Clear
9:13 PM 57.2 °F 53.6 °F 88% 29.72 in 10.0 mi SW 5.8 mph - N/A   Clear
9:33 PM 57.2 °F 53.6 °F 88% 29.72 in 10.0 mi SW 6.9 mph - N/A   Clear
9:52 PM 57.2 °F 53.6 °F 88% 29.73 in 10.0 mi SW 9.2 mph - N/A   Clear
10:13 PM 57.2 °F 53.6 °F 88% 29.73 in 10.0 mi SW 8.1 mph - N/A   Clear
10:33 PM 55.4 °F 53.6 °F 94% 29.73 in 10.0 mi SW 5.8 mph - N/A   Clear
10:52 PM 55.4 °F 51.8 °F 88% 29.74 in 10.0 mi WSW 5.8 mph - N/A   Clear
11:13 PM 55.4 °F 51.8 °F 88% 29.74 in 10.0 mi SW 4.6 mph - N/A   Clear
11:33 PM 51.8 °F 50.0 °F 94% 29.74 in 10.0 mi SW 4.6 mph - N/A   Clear
11:52 PM 53.6 °F 50.0 °F 88% 29.74 in 10.0 mi SW 4.6 mph - N/A   Clear